Date,TemperatureHighF,TemperatureAvgF,TemperatureLowF,DewpointHighF,DewpointAvgF,DewpointLowF,HumidityHigh,HumidityAvg,HumidityLow,PressureMaxIn,PressureMinIn,WindSpeedMaxMPH,WindSpeedAvgMPH,GustSpeedMaxMPH,PrecipitationSumIn
2013-1-1,24.4,20.0,14.7,-7.2,-10.2,-15.5,26,25,24,29.26,29.15,0,0,0,0.04
2013-1-2,34.2,22.3,12.6,-0.2,-9.4,-17.4,26,24,22,29.23,29.09,9,1,9,0.00
2013-1-3,35.8,29.6,23.5,0.7,-3.5,-7.9,26,23,22,29.38,29.21,6,1,6,0.00
2013-1-4,40.3,29.7,18.9,3.5,-3.5,-11.1,27,23,21,29.35,29.21,13,2,13,0.00
2013-1-5,42.6,36.4,30.4,5.4,1.1,-3.0,23,22,21,29.21,29.03,13,3,13,0.00
2013-1-6,38.1,30.3,23.2,1.7,-3.2,-8.2,24,23,21,29.35,29.15,8,1,8,0.00
2013-1-7,48.0,37.3,28.6,7.7,1.3,-4.5,23,21,19,29.26,29.03,10,3,10,0.00
2013-1-8,54.5,43.4,35.1,11.9,5.2,0.1,22,20,18,29.15,28.94,10,3,10,0.00
2013-1-9,49.1,39.9,30.0,8.6,3.1,-3.3,23,21,19,29.38,29.15,4,0,4,0.00
2013-1-10,49.8,44.1,39.0,28.8,15.0,3.5,44,31,20,29.29,28.70,8,2,8,0.28
2013-1-11,57.7,53.9,49.1,28.0,17.1,9.8,42,25,17,28.73,28.59,14,3,14,0.00
2013-1-12,57.2,31.6,23.0,12.8,-2.5,-8.2,25,23,17,29.09,28.73,11,4,11,0.00
2013-1-13,26.2,20.5,13.5,-5.6,-9.9,-16.6,26,25,24,29.32,29.03,9,2,9,0.00
2013-1-14,30.9,20.3,11.5,-2.5,-10.6,-18.3,26,24,23,29.44,29.32,7,1,7,0.00
2013-1-15,32.7,23.6,14.2,-1.0,-7.8,-16.0,26,24,23,29.35,29.15,4,0,4,0.00
2013-1-16,45.0,30.5,17.2,6.3,-3.1,-12.1,26,23,20,29.15,29.00,8,2,8,0.00
2013-1-17,46.0,36.8,30.6,7.2,1.3,-2.8,23,22,20,29.44,29.15,9,2,9,0.00
2013-1-18,56.1,44.4,31.5,12.5,5.7,-2.0,23,20,17,29.38,29.00,13,5,13,0.00
2013-1-19,59.2,47.8,39.6,14.4,7.8,2.9,21,19,17,29.21,28.97,11,4,11,0.00
2013-1-20,43.3,31.3,22.5,5.3,-2.4,-8.2,25,23,20,29.35,29.21,8,2,8,0.00
2013-1-21,22.8,19.6,16.2,-7.7,-10.4,-12.7,26,25,25,29.41,29.32,7,2,7,0.00
2013-1-22,30.4,22.1,14.9,-3.0,-8.8,-13.8,26,24,23,29.38,29.21,6,1,6,0.00
2013-1-23,46.0,29.6,15.6,7.2,-3.8,-13.1,26,23,20,29.35,29.15,8,1,8,0.00
2013-1-24,27.5,21.7,10.8,-5.3,-9.3,-18.9,26,24,23,29.44,29.12,10,3,10,0.00
2013-1-25,45.9,34.5,22.8,7.1,-0.4,-8.2,25,22,20,29.21,29.12,6,1,6,0.00
2013-1-26,53.4,42.3,28.9,11.0,4.4,-4.2,23,20,18,29.26,29.06,5,1,5,0.00
2013-1-27,60.6,52.1,39.9,17.5,11.9,3.2,28,20,17,29.06,28.73,14,3,14,0.08
2013-1-28,72.7,65.1,59.2,24.4,20.3,17.0,22,18,15,28.85,28.64,15,4,15,0.00
2013-1-29,67.3,49.7,36.3,23.7,16.6,12.1,39,28,17,28.64,28.44,13,2,13,1.10
2013-1-30,36.5,28.1,22.8,12.7,-2.1,-8.2,37,27,23,28.94,28.47,4,0,4,0.00
2013-1-31,24.1,18.5,10.0,-7.5,-11.1,-17.3,27,25,24,29.44,28.91,0,0,0,0.00
2013-2-1,26.8,18.0,8.1,-5.3,-11.7,-19.0,27,25,23,29.41,29.12,0,0,0,0.00
2013-2-2,47.3,36.2,25.0,7.4,0.6,-6.7,24,22,19,29.18,29.06,8,1,8,0.00
2013-2-3,48.9,40.5,32.7,8.5,3.6,-1.0,23,21,19,29.23,28.82,10,2,10,0.00
2013-2-4,48.0,39.9,27.0,7.7,3.0,-6.0,23,21,19,28.97,28.76,10,2,10,0.00
2013-2-5,55.0,38.2,25.5,12.3,2.0,-6.2,24,21,18,29.06,28.88,10,2,10,0.00
2013-2-6,61.0,47.8,30.2,15.6,7.6,-3.1,23,19,16,29.09,28.85,8,2,8,0.00
2013-2-7,50.9,44.2,32.9,23.2,10.6,-1.0,37,25,19,29.18,28.82,10,2,10,0.51
2013-2-8,42.4,34.6,30.9,5.3,-0.1,-2.5,23,22,21,29.29,29.18,8,2,8,0.00
2013-2-9,47.7,37.4,29.7,7.4,1.9,-3.6,25,22,19,29.21,28.73,6,1,6,0.00
2013-2-10,53.4,45.7,37.0,25.4,10.6,1.0,42,24,18,28.88,28.47,20,6,20,0.08
2013-2-11,47.1,37.9,31.8,7.4,1.9,-1.8,23,21,19,29.15,28.88,8,3,8,0.00
2013-2-12,42.1,33.8,26.4,5.0,-0.8,-6.0,24,22,21,29.15,28.94,4,0,4,0.00
2013-2-13,55.2,43.5,29.1,12.5,5.4,-4.1,23,20,18,28.94,28.79,11,2,11,0.00
2013-2-14,49.8,43.1,35.4,9.2,5.0,0.4,22,20,19,29.15,28.82,10,2,10,0.00
2013-2-15,37.9,31.1,22.6,1.9,-2.5,-8.2,25,23,21,29.32,29.15,9,3,9,0.00
2013-2-16,34.9,29.2,20.5,-0.1,-3.9,-9.7,25,23,22,29.26,29.03,8,2,8,0.00
2013-2-17,58.5,43.1,27.5,13.8,4.8,-5.4,23,20,17,29.03,28.67,10,1,10,0.00
2013-2-18,54.5,43.7,29.1,13.1,5.3,-4.1,23,20,18,29.06,28.53,17,5,17,0.00
2013-2-19,34.5,28.3,23.2,-0.2,-4.5,-8.2,24,23,22,29.32,29.06,15,2,15,0.00
2013-2-20,26.4,22.3,17.4,-5.5,-8.4,-12.1,26,25,24,29.35,29.15,7,2,7,0.00
2013-2-21,27.0,24.2,21.7,-1.4,-6.1,-8.6,29,26,24,29.15,28.73,11,3,11,0.00
2013-2-22,30.0,26.1,21.2,3.1,-2.1,-9.1,31,29,24,29.06,28.76,7,2,7,0.16
2013-2-23,33.6,24.6,13.6,5.5,-4.6,-14.4,30,27,23,29.06,28.91,6,1,6,0.08
2013-2-24,40.5,30.4,19.4,7.1,-2.5,-10.7,30,24,21,29.00,28.88,5,1,5,0.00
2013-2-25,34.9,32.9,30.2,6.6,0.6,-3.1,32,25,22,28.94,28.61,6,1,6,0.00
2013-2-26,33.3,32.6,31.8,8.7,7.7,6.6,36,35,32,28.82,28.53,0,0,0,0.04
2013-2-27,32.7,31.6,30.2,7.3,4.8,0.2,35,32,25,29.00,28.79,6,0,6,0.04
2013-2-28,32.2,30.3,28.4,2.8,-1.1,-2.8,28,25,25,29.18,29.00,11,3,11,0.00
2013-3-1,29.7,27.2,25.3,-2.0,-5.1,-6.4,26,24,23,29.26,29.15,11,2,11,0.00
2013-3-2,31.6,27.1,22.8,-1.9,-5.3,-8.2,25,24,23,29.32,29.15,8,2,9,0.16
2013-3-3,36.7,32.5,25.0,3.1,-1.2,-6.7,26,23,22,29.15,28.73,6,1,6,0.00
2013-3-4,46.4,38.2,34.0,7.4,2.1,-0.9,24,21,19,28.91,28.64,12,2,12,0.00
2013-3-5,36.5,32.7,28.4,7.2,-0.8,-4.7,31,23,22,29.29,28.91,14,3,14,0.04
2013-3-6,39.9,31.6,24.6,3.2,-2.3,-7.0,24,23,21,29.38,29.23,13,2,13,0.00
2013-3-7,49.1,35.3,24.6,8.6,-0.0,-7.0,24,22,19,29.26,29.09,9,1,9,0.00
2013-3-8,58.1,46.7,34.3,13.5,7.1,-0.6,22,20,17,29.18,28.97,8,2,8,0.00
2013-3-9,59.2,51.9,46.4,29.4,13.5,6.4,36,22,17,28.97,28.59,10,2,10,0.51
2013-3-10,54.7,41.1,28.2,28.3,15.0,-4.8,39,34,23,28.85,28.56,10,1,10,0.04
2013-3-11,36.7,30.3,26.2,1.4,-3.2,-6.0,24,23,22,29.00,28.82,10,1,10,0.00
2013-3-12,48.0,37.3,29.1,7.7,1.4,-4.2,23,22,19,29.29,28.97,14,3,14,0.00
2013-3-13,48.2,35.2,25.2,7.9,-0.0,-6.6,24,22,19,29.44,29.29,7,1,7,0.00
2013-3-14,69.8,51.2,34.7,23.1,9.7,-0.2,22,19,15,29.29,29.03,13,2,13,0.00
2013-3-15,80.8,59.6,37.8,28.6,15.1,1.4,23,18,14,29.06,28.64,13,3,13,0.00
2013-3-16,61.2,45.0,37.9,15.6,6.2,1.5,21,20,16,29.03,28.67,13,3,13,0.00
2013-3-17,37.9,34.5,33.3,8.4,3.6,-1.0,33,27,21,29.03,28.73,11,3,11,0.08
2013-3-18,52.7,42.7,34.5,12.0,8.7,1.0,38,25,18,29.03,28.70,14,2,14,0.00
2013-3-19,38.5,34.2,29.3,6.6,0.8,-3.9,27,24,22,29.23,29.03,6,0,6,0.04
2013-3-20,38.3,32.5,25.0,8.0,-1.1,-6.7,32,23,21,29.35,29.09,10,2,10,0.00
2013-3-21,29.7,27.9,25.5,-1.8,-4.7,-6.2,25,23,23,29.09,28.88,8,2,8,0.00
2013-3-22,33.8,31.9,29.7,4.0,2.1,-1.8,31,28,23,28.97,28.91,6,1,6,0.04
2013-3-23,38.1,34.4,32.9,9.1,2.6,-1.0,36,26,21,29.00,28.82,9,1,9,0.00
2013-3-24,32.9,30.0,25.3,8.9,6.9,2.7,38,37,34,29.03,28.76,7,0,7,0.00
2013-3-25,30.9,26.8,22.3,7.1,3.1,-1.2,37,35,34,29.29,29.00,9,1,9,0.00
2013-3-26,35.1,29.1,22.6,5.3,-0.1,-2.8,34,28,22,29.35,29.26,6,1,6,0.08
2013-3-27,47.7,36.1,27.3,7.4,1.2,-5.4,26,22,19,29.26,29.15,7,2,7,0.00
2013-3-28,63.1,48.7,36.7,16.2,8.1,1.0,22,19,16,29.21,29.09,5,1,5,0.00
2013-3-29,70.5,56.9,42.4,23.6,13.1,4.5,21,18,15,29.18,29.06,6,1,6,0.00
2013-3-30,65.1,57.4,51.6,23.8,15.6,9.7,27,20,15,29.06,28.85,5,1,5,0.00
2013-3-31,66.0,55.7,46.2,21.4,13.5,6.4,29,19,15,28.94,28.88,9,2,9,0.00
2013-4-1,47.7,42.1,34.9,7.4,4.4,-0.1,22,20,19,29.26,28.94,10,2,10,0.00
2013-4-2,53.8,40.7,31.6,11.3,3.5,-1.9,23,21,18,29.32,29.21,9,1,9,0.00
2013-4-3,54.0,43.3,33.1,11.4,5.2,-1.0,23,20,18,29.38,29.23,6,2,6,0.00
2013-4-4,64.6,50.6,39.2,17.1,9.4,2.6,21,19,15,29.32,29.06,6,1,6,0.00
2013-4-5,74.5,56.3,37.4,25.4,12.8,1.0,21,18,15,29.29,28.88,10,2,10,0.00
2013-4-6,75.7,63.2,56.7,25.8,16.8,12.4,17,16,15,28.94,28.73,16,5,16,0.00
2013-4-7,72.7,59.0,44.6,24.4,15.5,6.0,26,18,15,29.50,28.76,8,1,8,0.16
2013-4-8,73.6,64.5,56.7,29.8,23.6,17.4,32,22,15,28.97,28.73,9,2,9,0.00
2013-4-9,71.2,67.7,60.3,30.3,20.9,16.1,27,17,15,28.94,28.73,8,2,8,0.28
2013-4-10,59.7,43.1,39.0,21.8,16.2,10.1,38,33,21,31.01,28.79,11,2,11,0.67
2013-4-11,42.1,37.3,34.0,12.9,3.8,-0.4,34,24,21,31.01,30.59,8,3,8,0.00
2013-4-12,52.2,40.4,31.8,10.7,3.4,-1.8,23,21,18,31.01,30.92,9,3,9,0.00
2013-4-13,66.4,52.6,33.3,17.4,10.1,-1.0,24,18,15,31.01,29.80,6,1,6,0.00
2013-4-14,75.4,63.2,52.9,25.8,17.3,10.6,19,17,15,31.01,29.21,17,4,17,0.16
2013-4-15,57.0,49.1,45.1,14.9,9.7,6.4,28,20,17,31.01,29.74,10,2,10,0.12
2013-4-16,47.3,45.0,42.8,7.4,6.0,4.5,20,20,19,31.01,31.01,20,3,20,0.12
2013-4-17,52.3,49.6,45.9,26.7,20.5,6.4,39,32,19,31.01,31.01,8,1,8,0.55
2013-4-18,48.0,40.4,37.0,24.3,10.1,1.0,39,29,21,31.01,31.01,8,3,8,0.24
2013-4-19,53.1,41.6,32.9,10.7,4.1,-1.0,23,21,18,31.01,31.01,10,3,11,0.12
2013-4-20,61.0,46.2,30.4,15.6,6.6,-3.0,23,20,16,31.01,31.01,6,2,6,0.12
2013-4-21,68.0,56.4,47.1,18.7,12.3,7.0,19,17,15,31.01,31.01,11,2,11,0.12
2013-4-22,68.5,56.7,46.6,21.9,12.7,6.5,23,17,15,31.01,31.01,9,2,9,0.12
2013-4-23,53.4,37.4,34.7,14.2,8.6,0.7,34,30,21,31.01,31.01,12,4,12,0.51
2013-4-24,55.8,42.0,30.6,12.5,5.6,-2.8,32,22,17,31.01,31.01,9,2,9,0.12
2013-4-25,71.1,43.9,35.2,24.1,5.4,0.2,22,20,15,31.01,31.01,10,1,10,0.12
2013-4-26,56.1,51.9,48.4,21.1,14.8,9.7,33,23,17,31.01,31.01,8,2,8,0.39
2013-4-27,54.0,50.4,47.5,26.2,21.3,13.5,38,32,20,31.01,31.01,6,0,6,0.43
2013-4-28,73.8,59.7,42.1,26.7,18.8,11.5,32,21,15,31.01,31.01,8,2,8,0.16
2013-4-29,87.1,70.9,56.8,30.3,22.8,15.1,20,16,13,31.01,31.01,13,4,13,0.12
2013-4-30,86.9,75.4,64.9,30.2,23.9,16.2,17,15,13,31.01,31.01,14,4,14,0.12
2013-5-1,84.9,67.9,45.5,29.8,19.7,6.4,20,16,13,31.01,31.01,14,2,14,0.12
2013-5-2,45.5,38.0,33.1,13.6,9.8,4.5,40,31,20,31.01,31.01,13,4,13,0.39
2013-5-3,39.2,36.4,33.3,12.7,7.8,1.0,40,30,21,31.01,17.72,17,4,17,0.67
2013-5-4,48.2,40.5,33.8,17.0,11.1,6.4,40,31,19,17.72,17.72,10,1,10,0.20
2013-5-5,56.8,50.4,44.6,23.5,16.8,11.0,38,27,17,17.72,17.72,10,2,10,0.12
2013-5-6,67.1,58.2,50.7,20.6,17.6,14.5,28,21,15,17.72,17.72,8,2,8,0.12
2013-5-7,78.4,65.2,45.9,28.3,20.5,10.3,32,19,15,17.72,17.72,6,1,6,0.12
2013-5-8,77.5,64.6,55.8,26.4,19.6,11.6,28,18,15,17.72,17.72,15,1,15,0.12
2013-5-9,75.6,65.4,58.6,35.5,25.6,16.1,34,23,15,17.72,17.72,8,1,8,0.20
2013-5-10,65.3,59.1,52.9,23.1,17.4,10.6,26,20,15,17.72,17.72,8,2,8,0.12
2013-5-11,66.4,57.6,47.3,17.4,14.0,8.5,27,18,15,17.72,17.72,13,3,13,0.12
2013-5-12,67.1,53.2,36.3,17.9,10.4,1.0,22,18,15,17.72,17.72,5,1,5,0.12
2013-5-14,88.0,78.8,63.3,31.0,25.9,15.8,16,14,13,28.88,28.82,10,3,10,0.00
2013-5-15,72.9,66.6,65.7,24.4,17.7,16.8,17,15,15,28.88,28.82,13,2,13,0.00
2013-5-16,75.0,69.8,62.4,27.6,22.8,16.8,24,17,15,28.88,28.79,6,0,6,0.00
2013-5-17,79.5,69.5,60.8,27.9,23.8,17.2,25,18,15,28.94,28.85,6,0,6,0.00
2013-5-18,85.8,76.7,60.1,30.5,26.9,16.8,27,16,13,28.91,28.85,6,2,6,0.00
2013-5-19,85.6,71.7,62.2,39.9,28.2,19.6,34,21,13,28.85,28.59,10,2,10,0.87
2013-5-20,78.1,68.7,61.2,30.6,26.0,22.9,29,21,15,28.76,28.64,10,1,10,0.04
2013-5-21,77.0,68.1,57.0,25.9,20.4,12.7,20,16,15,28.76,28.67,9,1,9,0.00
2013-5-22,63.1,59.9,55.8,16.2,14.2,11.6,17,16,16,28.82,28.73,4,2,4,0.00
2013-5-23,60.8,60.8,60.8,14.4,14.4,14.4,16,16,16,28.82,28.82,2,2,2,0.00
2013-5-24,60.8,60.8,60.8,14.4,14.4,14.4,16,16,16,28.82,28.82,2,2,2,0.00
2013-5-25,60.8,60.8,60.8,14.4,14.4,14.4,16,16,16,28.82,28.82,2,2,2,0.00
2013-5-26,60.8,60.8,60.8,14.4,14.4,14.4,16,16,16,28.82,28.82,2,2,2,0.00
2013-5-27,60.8,60.8,60.8,14.4,14.4,14.4,16,16,16,28.82,28.82,2,2,2,0.00
2013-5-28,60.8,60.8,60.8,14.4,14.4,14.4,16,16,16,28.82,28.82,2,2,2,0.00
2013-5-29,60.8,60.8,60.8,14.4,14.4,14.4,16,16,16,28.82,28.82,2,2,2,0.00
2013-5-30,68.7,66.1,64.6,34.2,32.3,29.7,32,28,24,28.73,28.64,8,1,8,0.00
2013-5-31,75.0,66.6,58.6,55.8,37.8,26.8,61,37,21,28.73,28.67,9,1,10,3.03
2013-6-1,71.4,66.2,61.3,29.9,20.7,14.8,26,18,15,28.97,28.67,10,1,10,0.00
2013-6-2,65.1,59.6,52.7,17.1,14.2,10.2,18,17,15,29.09,28.97,11,2,11,0.00
2013-6-3,79.3,61.4,45.5,27.7,17.3,7.1,27,18,15,29.06,28.88,6,1,6,0.00
2013-6-4,68.2,66.0,62.4,34.3,24.6,15.8,30,21,16,28.97,28.88,7,2,7,0.24
2013-6-5,68.2,68.2,68.2,29.0,29.0,29.0,23,23,23,28.88,28.88,4,4,4,0.00
2013-6-6,68.2,68.2,68.2,29.0,29.0,29.0,23,23,23,28.88,28.88,4,4,4,0.00
2013-6-7,68.2,68.2,68.2,29.0,29.0,29.0,23,23,23,28.88,28.88,4,4,4,0.00
2013-6-8,68.2,68.2,68.2,29.0,29.0,29.0,23,23,23,28.88,28.88,4,4,4,0.00
2013-6-9,81.9,71.8,65.8,29.0,27.4,16.8,23,19,14,28.88,28.73,6,3,6,0.00
2013-6-10,89.2,73.5,59.7,32.0,24.4,16.1,24,16,13,28.88,28.82,6,1,6,0.00
2013-6-11,96.4,83.1,70.3,33.4,28.9,23.1,22,14,11,28.88,28.79,11,2,11,0.00
2013-6-12,95.7,85.2,75.0,33.0,29.1,24.4,16,13,11,28.91,28.76,13,3,13,0.00
2013-6-13,88.0,74.9,63.5,31.0,23.9,15.8,17,15,13,29.06,28.91,11,2,11,0.00
2013-6-14,92.7,77.7,65.7,32.7,27.7,20.1,24,16,12,29.00,28.88,9,1,9,0.00
2013-6-15,91.2,75.9,66.6,32.7,28.4,23.2,28,18,12,29.00,28.88,19,2,19,1.69
2013-6-16,82.9,73.2,65.8,41.6,32.9,24.4,33,24,14,28.97,28.88,5,0,5,0.00
2013-6-17,77.7,72.3,69.1,33.1,26.4,22.5,24,18,15,29.00,28.88,6,0,6,0.08
2013-6-18,87.6,73.1,63.5,37.7,28.3,22.9,32,20,13,29.00,28.97,5,0,5,0.00
2013-6-19,89.8,76.8,63.5,35.4,29.1,24.4,29,18,12,29.03,28.94,8,1,8,0.00
2013-6-20,93.4,80.3,68.7,33.0,28.4,23.1,22,15,11,29.00,28.88,11,2,11,0.00
2013-6-21,94.6,83.3,75.0,33.0,28.5,24.4,16,14,11,28.97,28.91,11,3,11,0.00
2013-6-22,96.8,84.1,73.9,33.7,28.8,24.4,16,14,11,29.00,28.85,10,3,10,0.00
2013-6-23,91.2,81.6,73.2,32.2,28.2,24.4,19,14,12,28.94,28.79,12,2,12,0.00
2013-6-24,92.5,82.1,75.9,32.5,28.1,25.0,15,14,12,28.97,28.79,14,4,14,0.00
2013-6-25,89.8,80.1,74.3,34.7,28.8,25.3,23,16,12,28.88,28.73,12,3,12,0.12
2013-6-26,98.1,85.3,75.0,34.7,29.2,24.4,16,13,11,28.88,28.73,8,2,8,0.00
2013-6-27,84.6,77.5,70.0,31.8,26.4,23.1,21,15,13,29.00,28.82,8,0,8,0.04
2013-6-28,87.3,78.1,67.8,39.1,29.4,23.8,32,18,13,28.94,28.85,13,2,13,0.00
2013-6-29,82.8,74.9,65.8,28.8,24.3,16.9,17,15,14,28.88,28.79,14,3,14,0.00
2013-6-30,79.5,71.0,62.6,27.9,21.7,15.8,17,15,14,29.03,28.88,11,3,11,0.00
2013-7-1,83.1,72.5,61.3,29.0,22.4,14.8,17,15,14,29.09,29.03,10,2,10,0.00
2013-7-2,85.6,73.0,59.4,29.8,22.7,14.4,17,15,13,29.12,29.03,8,1,8,0.00
2013-7-3,87.1,70.1,60.8,30.3,22.5,0.0,24,17,13,29.06,28.97,6,1,11,0.35
2013-7-4,89.1,73.1,57.9,31.9,26.2,20.6,27,18,13,29.03,28.94,8,1,8,0.00
2013-7-5,93.2,79.2,64.0,33.0,26.1,15.8,18,14,11,29.00,28.88,8,1,8,0.00
2013-7-6,90.9,76.3,68.4,32.0,25.5,18.5,17,15,12,29.00,28.88,11,2,11,0.04
2013-7-7,93.0,81.2,72.1,33.0,27.7,23.5,16,14,12,28.97,28.91,10,2,10,0.00
2013-7-8,95.9,82.6,74.1,33.0,28.1,24.4,16,14,11,29.03,28.97,8,2,8,0.00
2013-7-9,99.5,87.0,76.6,34.9,29.9,25.6,15,13,10,29.00,28.85,12,2,12,0.00
2013-7-10,92.5,84.0,76.6,32.5,29.1,25.6,15,14,12,29.03,28.88,8,1,8,0.00
2013-7-11,91.0,78.4,68.4,32.2,26.3,19.0,17,15,12,29.09,28.97,7,1,7,0.00
2013-7-12,92.1,78.2,67.8,32.3,26.0,18.5,17,15,12,29.06,28.97,6,1,6,0.00
2013-7-13,92.5,79.8,69.1,32.5,26.9,18.5,17,14,12,29.03,28.94,6,0,6,0.00
2013-7-14,91.9,79.1,66.6,32.2,26.4,17.5,17,14,12,29.09,29.00,6,1,6,0.00
2013-7-15,91.6,79.4,69.4,32.2,27.3,22.8,20,15,12,29.18,29.09,5,0,5,0.00
2013-7-16,95.0,83.5,72.1,33.0,28.6,23.5,19,14,11,29.23,29.15,5,0,5,0.00
2013-7-17,92.8,81.2,73.2,32.8,27.9,24.4,18,14,12,29.29,29.18,5,0,5,0.31
2013-7-18,96.4,83.4,71.1,33.4,30.1,24.4,22,15,11,29.21,29.00,6,1,6,0.00
2013-7-19,97.7,85.3,72.5,34.2,29.2,23.8,16,13,11,29.00,28.85,8,1,8,0.00
2013-7-20,88.9,78.3,72.5,38.8,28.3,24.4,27,16,13,28.94,28.85,5,0,5,0.12
2013-7-21,87.4,77.9,70.9,32.5,29.1,25.0,23,17,13,28.94,28.79,8,1,8,0.00
2013-7-22,94.3,80.8,70.7,33.0,28.8,23.1,23,15,11,28.85,28.76,8,1,8,0.00
2013-7-23,86.5,79.4,72.5,34.0,27.8,23.8,22,15,13,28.94,28.79,9,1,9,0.00
2013-7-24,87.8,76.4,67.3,30.9,24.9,18.1,17,15,13,29.03,28.91,7,1,8,0.00
2013-7-25,86.4,73.6,65.7,31.6,25.7,17.9,23,17,13,29.09,29.00,6,0,6,0.04
2013-7-26,88.5,74.3,69.1,33.8,28.9,18.5,25,19,13,29.06,28.97,8,1,8,0.04
2013-7-27,81.3,68.4,58.3,28.6,20.1,13.7,19,16,14,29.09,28.97,8,1,8,0.04
2013-7-28,77.5,67.5,58.5,26.3,20.0,13.8,19,16,14,29.06,29.00,6,0,6,0.04
2013-7-29,70.3,66.5,61.9,41.4,29.6,15.9,35,26,15,29.09,28.94,4,0,5,0.94
2013-7-30,82.0,74.7,70.3,48.6,36.4,24.4,40,27,14,29.06,28.97,6,1,6,0.16
2013-7-31,86.4,77.2,70.2,32.5,28.8,23.5,24,17,13,29.12,29.03,6,1,6,0.04
2013-8-1,72.1,68.7,66.0,27.2,24.6,22.2,23,19,16,29.09,29.06,0,0,0,0.00
2013-8-3,85.8,79.5,72.5,32.2,27.8,24.4,22,15,13,29.12,29.00,6,0,6,0.00
2013-8-4,75.7,71.1,67.6,40.8,30.9,22.2,32,23,15,29.15,29.00,5,0,5,0.35
2013-8-5,84.7,76.2,70.0,41.6,33.8,26.4,33,23,13,29.03,28.82,6,0,6,0.00
2013-8-6,90.5,79.3,70.5,42.2,32.8,27.0,32,20,12,28.88,28.79,6,1,6,0.16
2013-8-7,84.4,78.0,70.9,44.1,32.4,24.4,33,20,13,28.94,28.79,10,1,10,0.47
2013-8-8,74.3,71.5,68.7,27.5,24.0,22.2,20,17,16,29.00,28.88,8,0,8,0.00
2013-8-9,73.9,70.9,67.1,31.4,24.6,22.5,22,18,16,29.12,28.97,5,0,5,0.04
2013-8-10,86.5,74.2,64.2,32.7,27.7,22.5,29,19,13,29.18,29.09,6,0,6,0.00
2013-8-11,88.2,74.8,61.9,31.2,25.5,19.3,24,16,13,29.12,29.00,5,0,8,0.00
2013-8-12,82.6,74.6,68.0,40.8,30.0,23.9,33,20,14,29.03,28.94,10,1,10,0.83
2013-8-13,82.6,73.4,68.2,29.6,25.8,18.8,22,17,14,29.12,29.00,8,0,8,0.00
2013-8-14,79.5,69.8,62.6,27.9,22.0,16.2,18,16,14,29.18,29.09,6,0,6,0.00
2013-8-15,76.1,67.9,62.2,25.8,20.4,15.7,19,16,14,29.12,29.00,6,0,6,0.00
2013-8-16,80.4,70.1,62.1,28.6,21.2,15.4,19,16,14,29.15,29.06,6,0,6,0.00
2013-8-17,81.5,69.2,56.5,28.6,22.5,14.5,25,17,14,29.18,29.09,4,0,4,0.00
2013-8-18,86.4,72.0,57.9,29.8,23.2,15.9,25,16,13,29.15,29.06,6,0,6,0.00
2013-8-19,88.3,75.7,63.0,31.3,26.8,20.0,26,17,13,29.09,29.00,5,1,5,0.00
2013-8-20,91.4,79.1,66.6,32.2,27.0,20.4,20,15,12,29.06,28.97,12,1,12,0.00
2013-8-21,91.4,77.7,68.4,32.2,26.1,21.9,17,15,12,29.06,29.00,6,1,6,0.00
2013-8-22,90.1,80.8,69.4,32.2,28.7,23.8,23,15,12,29.09,29.00,5,0,5,0.00
2013-8-23,94.8,82.3,70.0,34.3,29.5,23.9,24,15,11,29.09,29.00,5,0,5,0.00
2013-8-24,94.1,79.9,71.6,32.8,28.5,23.9,22,16,11,29.12,29.03,8,1,8,0.00
2013-8-25,96.1,82.1,70.7,33.2,28.9,23.1,22,15,11,29.21,29.09,6,1,6,0.00
2013-8-26,96.4,83.3,72.7,33.4,28.7,23.9,19,14,11,29.15,29.06,8,1,8,0.00
2013-8-27,95.4,82.5,72.1,32.8,28.2,23.5,16,14,11,29.06,28.97,10,2,10,0.00
2013-8-28,94.3,81.7,69.3,33.0,28.3,22.6,22,14,11,29.03,28.97,8,1,8,0.00
2013-8-29,96.3,83.6,72.5,33.4,30.0,24.4,22,15,11,29.03,28.94,8,1,8,0.00
2013-8-30,100.6,87.2,75.0,34.9,29.8,24.4,16,13,10,28.97,28.82,8,1,8,0.00
2013-8-31,90.7,83.3,75.9,32.2,28.8,25.0,15,14,12,28.85,28.79,5,0,5,0.00
2013-9-1,86.9,77.0,68.7,40.3,29.2,23.2,31,18,13,28.94,28.76,14,2,14,0.31
2013-9-2,83.7,73.8,63.7,29.5,24.2,17.6,18,16,14,29.03,28.94,8,1,8,0.00
2013-9-3,88.0,72.6,59.5,31.0,22.9,14.8,22,16,13,29.09,29.00,5,0,5,0.00
2013-9-4,88.9,73.7,60.1,31.7,24.0,15.8,24,16,13,29.15,29.06,5,0,5,0.00
2013-9-5,90.1,76.0,61.9,32.0,25.3,16.9,24,15,12,29.21,29.09,4,0,4,0.00
2013-9-6,90.1,77.8,66.4,32.2,25.9,18.1,17,15,12,29.12,28.97,5,1,5,0.00
2013-9-7,97.3,81.7,69.4,34.1,27.9,22.8,17,14,11,29.00,28.88,8,1,8,0.00
2013-9-8,102.9,86.4,74.5,35.3,29.6,24.4,16,13,9,28.91,28.82,8,1,8,0.00
2013-9-9,96.6,83.9,73.8,33.6,28.7,24.4,16,14,11,28.94,28.88,9,1,12,0.00
2013-9-10,95.4,81.5,70.9,33.0,27.7,23.1,17,14,11,29.06,28.94,10,1,10,0.00
2013-9-11,95.0,80.6,67.8,33.0,27.5,21.5,17,14,11,29.12,29.03,7,0,7,0.00
2013-9-12,84.7,77.0,69.4,31.6,26.5,18.5,21,16,13,29.15,29.06,8,1,9,0.00
2013-9-13,77.7,68.3,59.9,26.4,19.8,14.4,17,16,14,29.18,29.06,6,0,6,0.00
2013-9-14,80.6,64.3,53.6,28.6,17.6,11.1,18,16,14,29.12,28.94,6,1,6,0.00
2013-9-15,84.4,71.9,65.7,29.8,22.3,16.8,17,15,13,29.12,28.94,8,1,8,0.08
2013-9-16,66.7,61.1,59.5,31.3,25.5,18.6,34,26,17,29.23,29.12,7,0,7,0.24
2013-9-17,69.4,65.2,61.7,46.1,32.6,24.6,44,30,24,29.18,28.97,5,0,5,0.79
2013-9-18,88.2,75.4,65.1,39.3,32.3,24.9,33,23,13,28.97,28.82,10,2,10,0.00
2013-9-19,92.3,78.9,67.1,38.3,29.2,23.2,34,17,12,28.94,28.76,8,2,8,1.10
2013-9-20,68.5,63.3,57.9,40.2,21.3,13.4,38,21,15,29.06,28.91,8,2,8,0.00
2013-9-21,75.2,61.8,48.9,25.8,17.0,10.7,27,18,14,29.06,28.91,5,0,5,0.00
2013-9-22,78.6,63.8,51.3,27.1,18.1,10.4,26,17,14,29.00,28.85,8,0,8,0.00
2013-9-23,78.8,65.5,53.4,27.3,19.2,11.3,23,17,14,28.94,28.79,8,1,8,0.00
2013-9-24,69.4,65.0,61.2,22.8,17.5,14.6,21,16,15,28.85,28.76,6,1,6,0.00
2013-9-25,79.3,67.1,57.2,30.5,23.3,15.9,29,19,14,28.91,28.82,6,0,6,0.00
2013-9-26,86.0,72.3,59.5,29.5,25.5,18.5,26,18,13,28.94,28.85,6,1,6,0.00
2013-9-27,87.8,75.5,66.0,30.9,24.8,18.8,18,15,13,28.97,28.85,8,1,8,0.00
2013-9-28,70.7,66.4,58.5,35.8,24.8,18.6,31,21,14,29.00,28.82,6,1,6,0.28
2013-9-29,73.6,66.8,56.8,24.7,19.2,12.5,17,16,14,29.00,28.94,4,0,4,0.28
2013-9-30,78.1,64.2,49.5,26.7,19.5,11.3,27,18,14,28.97,28.82,6,0,6,0.28
2013-10-1,82.4,71.7,57.2,36.8,25.6,14.5,33,18,14,28.97,28.85,5,0,5,0.28
2013-10-2,80.2,80.2,80.2,28.4,28.4,28.4,15,15,15,28.94,28.94,0,0,0,0.28
2013-10-3,80.2,80.2,80.2,28.4,28.4,28.4,15,15,15,28.94,28.94,0,0,0,0.28
2013-10-4,85.5,78.8,67.1,31.2,28.1,23.1,26,16,13,28.94,28.76,8,1,8,0.39
2013-10-5,67.1,55.2,48.0,31.1,12.5,7.7,26,18,17,29.03,28.91,8,1,8,0.04
2013-10-6,61.9,52.2,43.5,15.6,10.2,5.1,20,18,16,29.00,28.85,11,1,11,0.00
2013-10-7,70.9,57.0,43.7,23.9,13.1,5.3,20,18,14,29.15,29.00,6,0,6,0.00
2013-10-8,75.6,61.1,47.1,25.8,16.2,7.0,24,17,14,29.12,29.00,9,1,10,0.00
2013-10-9,75.0,61.9,51.1,25.8,16.1,9.7,19,17,14,29.09,29.00,8,1,8,0.00
2013-10-10,78.4,63.6,48.7,27.0,18.2,8.9,27,17,14,29.06,28.88,8,1,8,0.00
2013-10-11,75.0,66.4,56.3,25.8,20.8,12.8,25,18,16,28.88,28.76,11,2,11,0.20
2013-10-12,67.6,59.9,51.1,24.9,15.5,9.7,25,18,15,29.23,28.85,8,1,8,0.00
2013-10-13,69.8,56.8,43.2,23.1,13.0,4.8,23,18,14,29.38,29.23,5,0,5,0.00
2013-10-14,69.6,57.8,50.7,22.9,13.4,9.7,19,17,15,29.26,29.00,4,0,4,0.04
2013-10-16,58.5,53.2,45.1,13.8,10.8,6.4,20,18,17,29.12,28.97,8,0,8,0.00
2013-10-17,65.3,54.1,42.1,17.1,11.3,4.5,23,18,15,29.00,28.88,8,1,8,0.00
2013-10-18,49.5,42.0,37.4,11.2,7.4,2.7,32,24,19,29.12,29.00,8,1,8,0.16
2013-10-19,59.7,46.4,34.9,15.2,10.4,7.3,33,24,17,29.09,28.88,9,1,9,0.00
2013-10-20,68.7,56.8,44.8,68.2,12.5,6.2,100,17,15,28.91,28.79,8,1,8,0.00
2013-10-21,56.5,48.9,42.3,12.5,8.4,4.5,21,19,17,29.12,28.91,8,1,8,0.00
2013-10-22,61.0,50.7,41.7,15.6,9.4,4.5,21,19,16,29.09,28.88,10,2,10,0.00
2013-10-23,52.0,44.6,35.1,10.7,5.9,0.1,22,20,18,29.15,29.03,4,0,4,0.00
2013-10-24,50.2,45.3,35.4,9.5,6.5,0.4,22,20,19,29.41,29.15,10,1,10,0.00
2013-10-25,56.1,42.8,28.8,12.5,4.4,-4.3,23,20,17,29.44,29.15,8,1,8,0.00
2013-10-26,60.8,51.3,42.4,15.6,9.8,4.5,21,19,16,29.15,29.06,9,1,9,0.00
2013-10-27,61.7,46.5,30.7,15.6,6.8,-2.7,25,20,16,29.15,28.94,8,0,8,0.00
2013-10-28,66.9,50.7,36.5,17.8,9.3,1.0,23,19,15,29.12,29.00,5,0,6,0.00
2013-10-29,64.0,57.1,52.3,45.0,32.7,10.1,51,41,18,29.12,28.91,4,0,4,0.91
2013-10-30,67.3,65.2,61.9,49.4,44.1,29.6,53,47,27,28.97,28.73,8,2,8,2.95
2013-10-31,62.2,51.9,48.4,43.9,34.8,31.4,53,52,49,28.73,28.56,6,0,6,1.18
2013-11-1,58.3,49.6,41.5,31.6,18.2,7.0,54,33,17,28.97,28.64,7,0,7,0.04
2013-11-2,54.5,47.0,41.0,11.9,7.4,4.1,21,19,18,29.18,28.97,8,1,8,0.00
2013-11-3,59.2,47.9,34.3,14.4,7.8,-0.6,22,19,17,29.15,28.91,12,2,12,0.00
2013-11-4,59.4,55.1,48.9,14.6,11.9,8.5,19,18,17,29.09,28.88,13,2,13,0.08
2013-11-5,60.1,57.0,51.3,30.1,21.9,12.1,32,26,17,29.09,28.85,9,2,9,0.63
2013-11-6,51.3,40.4,34.5,17.6,5.3,-0.4,30,23,20,29.32,28.91,9,2,9,0.20
2013-11-7,54.3,41.6,32.0,11.7,4.5,-1.6,27,21,18,29.38,29.29,8,1,8,0.00
2013-11-8,63.9,48.6,32.7,16.8,8.0,-1.0,23,19,16,29.32,28.88,17,3,17,0.00
2013-11-9,63.7,51.9,41.7,16.7,10.1,4.5,21,18,16,29.29,28.97,8,1,8,0.00
2013-11-10,58.3,50.0,41.0,13.7,9.0,4.1,21,19,17,29.41,29.21,6,0,6,0.00
2013-11-11,58.8,47.8,28.6,14.1,7.5,-4.5,23,19,17,29.59,29.15,10,2,10,0.00
2013-11-12,34.0,26.5,19.2,-0.2,-5.6,-10.8,25,24,22,29.83,29.59,11,2,11,0.00
2013-11-13,48.7,34.0,21.2,8.3,-0.8,-9.1,25,22,19,29.65,29.18,9,2,9,0.00
2013-11-14,54.5,44.0,35.1,11.9,5.5,0.0,22,20,18,29.18,28.94,10,3,10,0.00
2013-11-15,59.4,50.7,44.1,14.6,9.5,5.6,20,19,17,28.97,28.73,10,2,10,0.00
2013-11-16,68.5,59.5,50.5,21.3,14.3,9.8,19,17,15,28.76,28.44,15,6,231,0.00
2013-11-17,66.6,60.5,47.3,21.3,15.5,7.1,19,17,15,29.06,28.35,14,4,14,0.00
2013-11-18,56.3,46.2,36.0,12.5,6.8,0.8,22,20,17,29.26,29.06,5,0,232,0.00
2013-11-19,60.8,47.3,34.3,15.6,7.4,-0.6,22,19,16,29.23,28.97,7,2,7,0.00
2013-11-20,50.9,45.3,39.9,11.0,7.0,3.6,29,21,19,29.00,28.85,7,1,7,0.16
2013-11-21,49.8,43.3,29.5,16.7,8.8,-2.0,30,24,19,29.38,28.94,9,1,9,0.16
2013-11-22,30.6,27.5,25.0,-2.0,-5.0,-6.7,25,23,23,29.59,29.38,0,0,0,0.00
2013-11-23,28.0,24.4,16.7,-5.0,-7.1,-12.2,26,24,23,29.74,29.56,0,0,0,0.00
2013-11-24,28.0,21.1,13.3,-5.0,-10.0,-16.8,26,24,23,29.71,29.29,4,0,4,0.00
2013-11-25,37.4,31.9,27.3,1.9,-2.0,-5.7,23,23,21,29.29,29.15,6,1,6,0.00
2013-11-26,37.0,30.8,22.8,1.7,-2.8,-8.2,25,23,22,29.38,29.15,10,3,10,0.00
2013-11-27,33.3,24.9,16.7,-0.5,-6.8,-12.2,26,24,23,29.41,29.15,6,1,6,0.00
2013-11-28,40.6,32.6,27.0,3.8,-1.7,-5.9,23,22,21,29.44,29.15,6,1,6,0.00
2013-11-29,51.3,35.3,25.2,10.4,0.0,-6.6,24,22,19,29.47,29.23,6,0,6,0.00
2013-11-30,54.3,41.8,32.5,11.7,4.2,-1.1,23,21,18,29.23,29.06,8,1,8,0.00
2013-12-1,55.2,41.1,28.4,12.5,3.8,-4.7,27,21,18,29.09,28.85,4,0,4,0.00
2013-12-2,51.1,42.8,36.1,15.5,6.2,1.0,29,22,19,28.85,28.61,8,1,8,0.00
2013-12-3,58.8,47.1,39.4,19.3,10.9,4.5,31,23,17,28.61,28.53,8,1,8,0.00
2013-12-4,46.8,36.0,24.3,15.4,3.4,-7.3,29,25,21,29.03,28.50,9,2,9,0.00
2013-12-5,24.1,19.3,16.9,-7.5,-10.7,-12.1,26,25,24,29.35,29.03,12,3,12,0.00
2013-12-6,19.0,15.7,11.1,-11.0,-13.9,-18.6,26,25,24,29.62,29.32,10,3,10,0.00
2013-12-7,21.7,14.6,6.4,-8.6,-15.2,-22.6,26,25,24,29.68,29.32,6,2,6,0.00
2013-12-8,24.4,22.0,19.6,-7.2,-8.8,-10.5,25,25,24,29.32,28.97,6,1,6,0.00
2013-12-9,21.7,14.3,11.8,-8.6,-14.6,-17.8,27,26,24,29.38,29.15,6,1,6,0.00
2013-12-10,37.4,23.5,11.8,1.9,-8.4,-18.0,26,24,21,29.29,29.18,8,2,8,0.00
2013-12-11,27.0,22.2,13.5,-5.6,-8.8,-16.6,26,24,23,29.59,29.21,10,2,10,0.00
2013-12-12,45.1,27.6,12.7,6.5,-5.5,-17.2,26,23,20,29.56,29.15,10,2,10,0.00
2013-12-13,36.3,33.0,28.8,7.1,0.9,-4.3,30,25,22,29.15,28.85,4,0,4,0.08
2013-12-14,35.2,27.7,21.6,7.7,-3.2,-8.8,32,25,23,29.21,28.85,8,0,8,0.00
2013-12-15,47.3,33.1,19.0,7.4,-1.5,-11.0,25,22,19,29.21,28.94,8,1,8,0.00
2013-12-16,57.9,41.6,29.1,13.4,4.0,-4.1,23,21,17,29.12,28.94,7,1,7,0.00
2013-12-17,45.7,35.1,26.4,6.9,-0.0,-6.0,24,22,20,29.26,29.12,8,1,8,0.00
2013-12-18,61.5,44.6,26.1,15.6,5.5,-6.0,24,20,16,29.21,28.76,13,3,13,0.00
2013-12-19,56.8,53.5,50.7,12.5,10.9,9.7,19,18,17,28.79,28.64,10,2,10,0.00
2013-12-20,55.8,28.3,22.3,12.3,-4.2,-8.2,26,24,17,28.91,28.67,8,2,8,0.00
2013-12-21,28.9,25.7,22.3,1.6,-4.3,-8.2,31,26,23,28.88,28.59,7,1,7,0.04
2013-12-22,27.3,22.4,13.8,0.7,-6.8,-14.4,32,27,24,29.35,28.70,8,1,8,0.00
2013-12-23,13.8,11.0,7.9,-14.0,-16.5,-19.1,27,27,27,29.59,29.32,6,1,6,0.00
2013-12-24,30.7,17.2,5.9,-0.9,-12.3,-20.9,27,25,23,29.56,29.18,5,1,5,0.00
2013-12-25,37.4,31.5,28.2,1.9,-0.9,-4.8,28,24,21,29.32,29.21,8,1,8,0.12
2013-12-26,45.5,32.9,23.4,6.8,-1.6,-8.1,24,22,20,29.32,29.15,10,1,10,0.04
2013-12-27,50.4,36.2,24.8,9.7,0.6,-6.9,25,22,19,29.32,29.18,6,1,6,0.00
2013-12-28,53.8,41.8,32.7,11.3,4.3,-1.0,23,21,18,29.18,28.88,9,2,9,0.00
2013-12-29,40.8,20.1,11.8,3.8,-10.5,-18.0,26,25,21,29.29,28.91,12,4,12,0.00
2013-12-30,29.7,19.4,10.2,-3.6,-11.6,-19.4,26,24,23,29.29,29.15,8,1,8,0.00
2013-12-31,49.6,33.6,17.8,9.1,-1.3,-12.1,25,22,19,29.29,29.03,11,2,11,0.00
2014-1-1,38.1,24.2,10.4,1.9,-7.7,-19.2,26,24,21,29.26,29.00,11,2,11,0.00
2014-1-2,17.6,9.7,3.2,-11.4,-19.5,-25.4,26,24,24,29.44,29.26,8,2,8,0.00